Location: Newark
(43.4306°N, 0.3089°E)
Time: 07:08:27
(UTC+00:00)

S-56A Canister/Altair - Pass Details

Date: 28 August 2019
Orbit: 633 x 2499 km, 38.9° (Epoch: 17 September)

Event Time Altitude Azimuth Distance (km) Brightness Sun altitude
Rises 16:46:44 0° 199° (SSW) 4,578 11.8 19.9°
Reaches altitude 10° 16:52:05 10° 176° (S) 3,145 10.7 18.9°
Maximum altitude 16:55:18 13° 150° (SSE) 2,639 10.1 18.3°
Drops below altitude 10° 16:58:07 10° 123° (ESE) 2,647 9.9 17.8°
Sets 17:01:49 0° 96° (E) 3,313 10.2 17.2°
